This is the latest recevied weather packets stored in our database for station/object VK6WB. If no packets are shown the sender has not sent any weather packets the latest 10 day(s).
| Time | Temp. | Humidity | Pressure | Rain* | Wind** | Luminosity | Snow |
|---|---|---|---|---|---|---|---|
| 1778169005 | 16.67° C | 53% | 1024.4 hPa | 0 mm | - | 219 W/m² | - |
| 1778168405 | 16.67° C | 52% | 1024.3 hPa | 0 mm | - | 219 W/m² | - |
| 1778167805 | 16.67° C | 51% | 1024.1 hPa | 0 mm | - | 322 W/m² | - |
| 1778167206 | 16.67° C | 51% | 1024.3 hPa | 0 mm | - | 426 W/m² | - |
| 1778166605 | 16.67° C | 50% | 1024.1 hPa | 0 mm | - | 426 W/m² | - |
| 1778166005 | 17.22° C | 50% | 1024.3 hPa | 0 mm | - | 322 W/m² | - |
| 1778165405 | 17.22° C | 49% | 1024.3 hPa | 0 mm | - | 271 W/m² | - |
| 1778164805 | 17.22° C | 48% | 1024.3 hPa | 0 mm | - | 219 W/m² | - |
| 1778164204 | 17.22° C | 47% | 1024.3 hPa | 0 mm | - | 271 W/m² | - |
| 1778163605 | 17.78° C | 47% | 1024.3 hPa | 0 mm | - | 271 W/m² | - |
| 1778163005 | 17.78° C | 46% | 1024.2 hPa | 0 mm | - | 271 W/m² | - |
| 1778162404 | 17.78° C | 46% | 1024.4 hPa | 0 mm | - | 271 W/m² | - |
| 1778161805 | 17.78° C | 46% | 1024.3 hPa | 0 mm | - | 168 W/m² | - |
| 1778161205 | 17.78° C | 45% | 1024.1 hPa | 0 mm | - | 168 W/m² | - |
| 1778160605 | 17.78° C | 45% | 1023.9 hPa | 0 mm | - | 116 W/m² | - |
| 1778160005 | 17.22° C | 46% | 1023.9 hPa | 0 mm | - | 116 W/m² | - |
| 1778159405 | 17.22° C | 46% | 1023.9 hPa | 0 mm | - | 116 W/m² | - |
| 1778158805 | 17.22° C | 46% | 1024 hPa | 0 mm | - | 116 W/m² | - |
| 1778158205 | 17.78° C | 45% | 1023.8 hPa | 0 mm | - | 116 W/m² | - |
| 1778157605 | 17.78° C | 44% | 1023.7 hPa | 0 mm | - | 116 W/m² | - |
| 1778157005 | 17.78° C | 44% | 1023.6 hPa | 0 mm | - | 116 W/m² | - |
| 1778156405 | 18.33° C | 44% | 1023.7 hPa | 0 mm | - | 116 W/m² | - |
| 1778155805 | 18.33° C | 43% | 1023.6 hPa | 0 mm | - | 64 W/m² | - |
| 1778155205 | 18.33° C | 43% | 1023.6 hPa | 0 mm | - | 65 W/m² | - |
| 1778154605 | 18.33° C | 43% | 1023.7 hPa | 0 mm | - | 65 W/m² | - |
* Rain latest hour (hover to see other rain measurements)
** Current wind speed in m/s (hover to see current wind gust speed)